Overview Statistics Trail Chart Weather Telemetry Raw packets
 

This is the latest recevied weather packets stored in our database for station/object HP1MRA-15. If no packets are shown the sender has not sent any weather packets the latest 10 day(s).

<< 24 25 26 27 28 29 30 >>
Time Temp. Humidity Pressure Rain* Wind** Luminosity Snow
1788505720 - - 1001.6 hPa 0 mm - - -
1788505420 27.22° C 75% 1001.5 hPa 0 mm - - -
1788505138 27.22° C 76% 1001.5 hPa 0 mm - - -
1788504861 27.22° C 76% 1001.3 hPa 0 mm - - -
1788504820 27.22° C 76% 1001.3 hPa 0 mm - - -
1788504520 27.22° C 78% 1001.4 hPa 0 mm - - -
1788504219 27.22° C 77% 1001.6 hPa 0 mm - - -
1788503961 27.22° C 74% 1001.6 hPa 0 mm - - -
1788503920 27.22° C 74% 1001.6 hPa 0 mm - - -
1788503619 27.22° C 75% 1001.8 hPa 0 mm - - -
1788503320 - - 1002 hPa 0 mm - - -
1788503061 27.22° C 78% 1002 hPa 0 mm - - -
1788503019 27.22° C 78% 1002 hPa 0 mm - - -
1788502419 27.22° C 75% 1001.9 hPa 0 mm - - -
1788502161 27.78° C 75% 1002.1 hPa 0 mm - - -
1788502120 27.22° C 74% 1002.1 hPa 0 mm - - -
1788501819 27.22° C 74% 1002.3 hPa 0 mm - - -
1788501519 27.22° C 74% 1002.3 hPa 0 mm - - -
1788501261 27.22° C 76% 1002.4 hPa 0 mm - - -
1788501220 27.78° C 77% 1002.4 hPa 0 mm - - -
1788500919 27.78° C 73% 1002.5 hPa 0 mm - - -
1788500619 27.78° C 73% 1002.4 hPa 0 mm - - -
1788500361 27.78° C 73% 1002.4 hPa 0 mm - - -
1788500319 27.78° C 73% 1002.4 hPa 0 mm - - -
1788500019 27.78° C 73% 1002.4 hPa 0 mm - - -

* Rain latest hour (hover to see other rain measurements)
** Current wind speed in m/s (hover to see current wind gust speed)